Time,TemperatureF,DewpointF,PressureIn,WindDirection,WindDirectionDegrees,WindSpeedMPH,WindSpeedGustMPH,Humidity,HourlyPrecipIn,Conditions,Clouds,dailyrainin,SolarRadiationWatts/m^2,SoftwareType,DateUTC
2013-06-29 00:14:00,66.3,64.0,29.49,West,261,3.0,5.0,92,0.00,,,0.00,0,weatherlink.com 1.10,2013-06-29 04:14:00,
2013-06-29 00:29:00,66.1,64.0,29.49,West,261,2.0,5.0,93,0.00,,,0.00,0,weatherlink.com 1.10,2013-06-29 04:29:00,
2013-06-29 00:44:00,65.9,64.0,29.49,West,261,2.0,4.0,93,0.00,,,0.00,0,weatherlink.com 1.10,2013-06-29 04:44:00,
2013-06-29 00:59:00,65.8,64.0,29.48,West,261,2.0,3.0,93,0.00,,,0.00,0,weatherlink.com 1.10,2013-06-29 04:59:00,
2013-06-29 01:14:00,65.6,64.0,29.48,West,261,0.0,4.0,93,0.00,,,0.00,0,weatherlink.com 1.10,2013-06-29 05:14:00,
2013-06-29 01:29:00,65.4,63.0,29.48,West,261,0.0,4.0,93,0.00,,,0.00,0,weatherlink.com 1.10,2013-06-29 05:29:00,
2013-06-29 01:44:00,65.2,63.0,29.47,West,261,1.0,2.0,93,0.00,,,0.00,0,weatherlink.com 1.10,2013-06-29 05:44:00,
2013-06-29 01:59:00,64.9,63.0,29.47,West,261,2.0,4.0,93,0.00,,,0.00,0,weatherlink.com 1.10,2013-06-29 05:59:00,
2013-06-29 02:14:00,64.7,63.0,29.48,West,265,0.0,4.0,94,0.00,,,0.00,0,weatherlink.com 1.10,2013-06-29 06:14:00,
2013-06-29 02:29:00,64.6,63.0,29.48,West,268,2.0,4.0,94,0.00,,,0.00,0,weatherlink.com 1.10,2013-06-29 06:29:00,
2013-06-29 02:44:00,64.5,63.0,29.47,West,268,0.0,3.0,94,0.00,,,0.00,0,weatherlink.com 1.10,2013-06-29 06:44:00,
2013-06-29 02:59:00,64.4,63.0,29.47,West,268,2.0,3.0,94,0.00,,,0.00,0,weatherlink.com 1.10,2013-06-29 06:59:00,
2013-06-29 03:14:00,64.5,63.0,29.48,West,270,3.0,5.0,94,0.00,,,0.00,0,weatherlink.com 1.10,2013-06-29 07:14:00,
2013-06-29 03:29:00,64.4,63.0,29.47,West,272,0.0,3.0,94,0.00,,,0.00,0,weatherlink.com 1.10,2013-06-29 07:29:00,
2013-06-29 03:44:00,64.2,63.0,29.47,West,272,0.0,2.0,94,0.00,,,0.00,0,weatherlink.com 1.10,2013-06-29 07:44:00,
2013-06-29 03:59:00,64.1,62.0,29.47,West,272,2.0,4.0,94,0.00,,,0.00,0,weatherlink.com 1.10,2013-06-29 07:59:00,
2013-06-29 04:14:00,63.9,62.0,29.46,West,272,0.0,2.0,94,0.00,,,0.00,0,weatherlink.com 1.10,2013-06-29 08:14:00,
2013-06-29 04:29:00,63.7,62.0,29.46,West,272,1.0,3.0,95,0.00,,,0.00,0,weatherlink.com 1.10,2013-06-29 08:29:00,
2013-06-29 04:44:00,63.4,62.0,29.47,West,272,0.0,1.0,95,0.00,,,0.00,0,weatherlink.com 1.10,2013-06-29 08:44:00,
2013-06-29 05:00:00,63.4,62.0,29.47,West,272,0.0,3.0,95,0.00,,,0.00,0,weatherlink.com 1.10,2013-06-29 09:00:00,
2013-06-29 05:15:00,63.4,62.0,29.47,West,275,0.0,4.0,95,0.00,,,0.00,0,weatherlink.com 1.10,2013-06-29 09:15:00,
2013-06-29 05:30:00,63.2,62.0,29.47,West,275,0.0,4.0,95,0.00,,,0.00,0,weatherlink.com 1.10,2013-06-29 09:30:00,
2013-06-29 05:45:00,63.1,62.0,29.47,West,275,0.0,4.0,95,0.00,,,0.00,0,weatherlink.com 1.10,2013-06-29 09:45:00,
2013-06-29 06:00:00,63.0,62.0,29.48,West,275,2.0,4.0,96,0.00,,,0.00,0,weatherlink.com 1.10,2013-06-29 10:00:00,
2013-06-29 06:15:00,62.9,62.0,29.48,West,275,0.0,4.0,95,0.00,,,0.00,5,weatherlink.com 1.10,2013-06-29 10:15:00,
2013-06-29 06:30:00,62.8,62.0,29.48,West,275,0.0,4.0,96,0.00,,,0.00,18,weatherlink.com 1.10,2013-06-29 10:30:00,
2013-06-29 06:45:00,62.8,62.0,29.48,WNW,299,3.0,7.0,96,0.00,,,0.00,26,weatherlink.com 1.10,2013-06-29 10:45:00,
2013-06-29 07:00:00,62.9,62.0,29.49,WNW,299,0.0,5.0,96,0.00,,,0.00,33,weatherlink.com 1.10,2013-06-29 11:00:00,
2013-06-29 07:15:00,63.0,62.0,29.49,NW,316,0.0,6.0,96,0.00,,,0.00,54,weatherlink.com 1.10,2013-06-29 11:15:00,
2013-06-29 07:30:00,63.0,62.0,29.50,NW,304,4.0,7.0,95,0.00,,,0.00,62,weatherlink.com 1.10,2013-06-29 11:30:00,
2013-06-29 07:45:00,62.9,62.0,29.50,NW,325,1.0,8.0,95,0.00,,,0.00,70,weatherlink.com 1.10,2013-06-29 11:45:00,
2013-06-29 08:00:00,63.3,62.0,29.49,NNW,347,5.0,9.0,94,0.00,,,0.00,86,weatherlink.com 1.10,2013-06-29 12:00:00,
2013-06-29 08:15:00,63.7,62.0,29.50,WNW,289,1.0,7.0,93,0.00,,,0.00,120,weatherlink.com 1.10,2013-06-29 12:15:00,
2013-06-29 08:30:00,63.9,62.0,29.50,NW,315,4.0,10.0,92,0.00,,,0.00,130,weatherlink.com 1.10,2013-06-29 12:30:00,
2013-06-29 08:45:00,64.1,62.0,29.50,NNW,341,2.0,6.0,91,0.00,,,0.00,137,weatherlink.com 1.10,2013-06-29 12:45:00,
2013-06-29 09:00:00,64.3,61.0,29.51,WNW,293,1.0,7.0,90,0.00,,,0.00,155,weatherlink.com 1.10,2013-06-29 13:00:00,
2013-06-29 09:15:00,64.7,62.0,29.51,NW,313,1.0,6.0,90,0.00,,,0.00,195,weatherlink.com 1.10,2013-06-29 13:15:00,
2013-06-29 09:30:00,65.4,62.0,29.50,NW,312,1.0,7.0,89,0.00,,,0.00,218,weatherlink.com 1.10,2013-06-29 13:30:00,
2013-06-29 09:45:00,66.0,62.0,29.51,NNW,333,0.0,6.0,88,0.00,,,0.00,227,weatherlink.com 1.10,2013-06-29 13:45:00,
2013-06-29 10:00:00,66.5,63.0,29.51,NNW,330,0.0,5.0,87,0.00,,,0.00,202,weatherlink.com 1.10,2013-06-29 14:00:00,
2013-06-29 10:15:00,66.8,62.0,29.50,NNW,338,3.0,7.0,85,0.00,,,0.00,255,weatherlink.com 1.10,2013-06-29 14:15:00,
2013-06-29 10:30:00,67.2,63.0,29.51,NNW,345,0.0,5.0,85,0.00,,,0.00,220,weatherlink.com 1.10,2013-06-29 14:30:00,
2013-06-29 10:45:00,67.0,62.0,29.51,NNE,24,3.0,5.0,85,0.00,,,0.00,220,weatherlink.com 1.10,2013-06-29 14:45:00,
2013-06-29 11:00:00,67.0,63.0,29.51,NNE,30,1.0,4.0,86,0.00,,,0.00,171,weatherlink.com 1.10,2013-06-29 15:00:00,
2013-06-29 11:15:00,67.3,63.0,29.52,NNE,30,0.0,4.0,85,0.00,,,0.00,192,weatherlink.com 1.10,2013-06-29 15:15:00,
2013-06-29 11:30:00,67.1,63.0,29.51,NE,42,4.0,6.0,85,0.00,,,0.00,251,weatherlink.com 1.10,2013-06-29 15:30:00,
2013-06-29 11:45:00,67.2,63.0,29.51,NE,52,1.0,5.0,86,0.00,,,0.00,218,weatherlink.com 1.10,2013-06-29 15:45:00,
2013-06-29 12:00:00,67.8,63.0,29.52,NE,45,3.0,4.0,85,0.00,,,0.00,232,weatherlink.com 1.10,2013-06-29 16:00:00,
2013-06-29 12:15:00,68.2,63.0,29.52,NE,47,3.0,5.0,84,0.00,,,0.00,278,weatherlink.com 1.10,2013-06-29 16:15:00,
2013-06-29 12:30:00,68.4,63.0,29.51,NNE,29,1.0,5.0,84,0.00,,,0.00,302,weatherlink.com 1.10,2013-06-29 16:30:00,
2013-06-29 12:45:00,68.8,64.0,29.52,NE,45,1.0,6.0,84,0.00,,,0.00,469,weatherlink.com 1.10,2013-06-29 16:45:00,
2013-06-29 13:00:00,69.2,64.0,29.52,NE,52,6.0,9.0,82,0.00,,,0.00,350,weatherlink.com 1.10,2013-06-29 17:00:00,
2013-06-29 13:15:00,69.2,63.0,29.52,ENE,70,3.0,8.0,81,0.00,,,0.00,369,weatherlink.com 1.10,2013-06-29 17:15:00,
2013-06-29 13:30:00,69.3,63.0,29.52,East,87,3.0,6.0,81,0.00,,,0.00,462,weatherlink.com 1.10,2013-06-29 17:30:00,
2013-06-29 13:45:00,69.6,64.0,29.52,NE,48,1.0,6.0,81,0.00,,,0.00,334,weatherlink.com 1.10,2013-06-29 17:45:00,
2013-06-29 14:00:00,69.9,64.0,29.51,NE,51,2.0,6.0,80,0.00,,,0.00,448,weatherlink.com 1.10,2013-06-29 18:00:00,
2013-06-29 14:16:00,70.8,64.0,29.51,ENE,66,2.0,6.0,78,0.00,,,0.00,733,weatherlink.com 1.10,2013-06-29 18:16:00,
2013-06-29 14:31:00,72.7,64.0,29.51,East,90,5.0,6.0,75,0.00,,,0.00,1018,weatherlink.com 1.10,2013-06-29 18:31:00,
2013-06-29 14:46:00,73.3,64.0,29.51,ENE,69,1.0,8.0,73,0.00,,,0.00,571,weatherlink.com 1.10,2013-06-29 18:46:00,
2013-06-29 15:01:00,75.4,65.0,29.50,ENE,69,0.0,3.0,70,0.00,,,0.00,717,weatherlink.com 1.10,2013-06-29 19:01:00,
2013-06-29 15:16:00,76.8,65.0,29.51,ENE,57,3.0,5.0,66,0.00,,,0.00,1216,weatherlink.com 1.10,2013-06-29 19:16:00,
2013-06-29 15:31:00,76.8,65.0,29.51,NE,52,2.0,5.0,66,0.00,,,0.00,480,weatherlink.com 1.10,2013-06-29 19:31:00,
2013-06-29 15:46:00,76.9,64.0,29.51,NE,49,5.0,5.0,65,0.00,,,0.00,352,weatherlink.com 1.10,2013-06-29 19:46:00,
2013-06-29 16:01:00,76.2,64.0,29.50,NE,49,0.0,4.0,66,0.00,,,0.00,308,weatherlink.com 1.10,2013-06-29 20:01:00,
2013-06-29 16:16:00,77.0,63.0,29.52,NE,56,0.0,4.0,62,0.00,,,0.00,469,weatherlink.com 1.10,2013-06-29 20:16:00,
2013-06-29 16:31:00,77.9,64.0,29.51,NE,50,6.0,7.0,62,0.00,,,0.00,1058,weatherlink.com 1.10,2013-06-29 20:31:00,
2013-06-29 16:46:00,72.3,60.0,29.52,NNE,31,11.0,18.0,66,0.01,,,0.01,83,weatherlink.com 1.10,2013-06-29 20:46:00,
2013-06-29 17:01:00,68.4,60.0,29.52,North,354,2.0,15.0,74,0.01,,,0.01,63,weatherlink.com 1.10,2013-06-29 21:01:00,
2013-06-29 17:16:00,67.6,61.0,29.54,NNE,23,2.0,9.0,79,0.01,,,0.01,53,weatherlink.com 1.10,2013-06-29 21:16:00,
2013-06-29 17:31:00,66.1,62.0,29.54,NW,311,8.0,11.0,85,0.01,,,0.01,72,weatherlink.com 1.10,2013-06-29 21:31:00,
2013-06-29 17:46:00,65.7,62.0,29.55,NW,322,6.0,10.0,89,0.00,,,0.01,65,weatherlink.com 1.10,2013-06-29 21:46:00,
2013-06-29 18:01:00,65.7,63.0,29.55,NW,325,2.0,8.0,91,0.01,,,0.02,42,weatherlink.com 1.10,2013-06-29 22:01:00,
2013-06-29 18:16:00,65.4,63.0,29.55,NW,324,1.0,6.0,93,0.02,,,0.03,37,weatherlink.com 1.10,2013-06-29 22:16:00,
2013-06-29 18:31:00,65.4,63.0,29.54,NNW,342,4.0,11.0,93,0.03,,,0.04,32,weatherlink.com 1.10,2013-06-29 22:31:00,
2013-06-29 18:46:00,65.4,64.0,29.55,NNW,343,2.0,7.0,94,0.03,,,0.04,39,weatherlink.com 1.10,2013-06-29 22:46:00,
2013-06-29 19:01:00,65.6,64.0,29.56,NNE,13,0.0,4.0,94,0.03,,,0.05,53,weatherlink.com 1.10,2013-06-29 23:01:00,
2013-06-29 19:16:00,65.8,64.0,29.56,NNW,334,0.0,5.0,94,0.03,,,0.06,47,weatherlink.com 1.10,2013-06-29 23:16:00,
2013-06-29 19:31:00,65.9,64.0,29.55,NW,305,1.0,5.0,94,0.02,,,0.06,54,weatherlink.com 1.10,2013-06-29 23:31:00,
2013-06-29 19:46:00,66.0,64.0,29.56,WNW,296,1.0,4.0,94,0.03,,,0.07,62,weatherlink.com 1.10,2013-06-29 23:46:00,
2013-06-29 20:01:00,66.1,64.0,29.56,North,354,1.0,7.0,94,0.02,,,0.07,58,weatherlink.com 1.10,2013-06-30 00:01:00,
2013-06-29 20:16:00,66.2,65.0,29.57,North,359,5.0,6.0,95,0.01,,,0.07,42,weatherlink.com 1.10,2013-06-30 00:16:00,
2013-06-29 20:31:00,66.2,65.0,29.57,North,354,2.0,6.0,94,0.01,,,0.07,32,weatherlink.com 1.10,2013-06-30 00:31:00,
2013-06-29 20:46:00,66.2,65.0,29.57,NNW,345,1.0,6.0,94,0.00,,,0.07,14,weatherlink.com 1.10,2013-06-30 00:46:00,
2013-06-29 21:01:00,66.2,65.0,29.58,NNE,19,1.0,5.0,94,0.00,,,0.07,7,weatherlink.com 1.10,2013-06-30 01:01:00,
2013-06-29 21:16:00,66.2,65.0,29.59,NNE,21,3.0,3.0,94,0.00,,,0.07,0,weatherlink.com 1.10,2013-06-30 01:16:00,
2013-06-29 21:31:00,66.1,64.0,29.59,NE,46,0.0,4.0,94,0.00,,,0.07,0,weatherlink.com 1.10,2013-06-30 01:31:00,
2013-06-29 21:46:00,66.1,64.0,29.60,ENE,59,3.0,5.0,93,0.00,,,0.07,0,weatherlink.com 1.10,2013-06-30 01:46:00,
2013-06-29 22:01:00,65.7,64.0,29.60,ENE,59,8.0,8.0,93,0.00,,,0.07,0,weatherlink.com 1.10,2013-06-30 02:01:00,
2013-06-29 22:16:00,65.0,63.0,29.60,ENE,57,3.0,8.0,93,0.01,,,0.08,0,weatherlink.com 1.10,2013-06-30 02:16:00,
2013-06-29 22:31:00,64.7,63.0,29.60,ENE,62,4.0,6.0,94,0.02,,,0.09,0,weatherlink.com 1.10,2013-06-30 02:31:00,
2013-06-29 22:46:00,64.4,63.0,29.61,ENE,62,2.0,4.0,94,0.03,,,0.10,0,weatherlink.com 1.10,2013-06-30 02:46:00,
2013-06-29 23:01:00,64.0,62.0,29.61,NE,56,4.0,6.0,94,0.03,,,0.10,0,weatherlink.com 1.10,2013-06-30 03:01:00,
2013-06-29 23:16:00,63.9,62.0,29.61,NE,56,1.0,6.0,94,0.02,,,0.10,0,weatherlink.com 1.10,2013-06-30 03:16:00,
2013-06-29 23:31:00,63.8,62.0,29.62,ENE,60,0.0,5.0,94,0.01,,,0.10,0,weatherlink.com 1.10,2013-06-30 03:31:00,
2013-06-29 23:46:00,63.7,62.0,29.61,ENE,60,0.0,4.0,94,0.00,,,0.10,0,weatherlink.com 1.10,2013-06-30 03:46:00,